TJS-2

Last updated on Thu Oct 30 2025 00:02:50 GMT+0000 (Coordinated Universal Time)

1 41911U 17001A 25302.58836737 .00000004 00000+0 00000+0 0 9996 2 41911 0.2299 89.0313 0001748 171.8686 55.6409 1.00269007 32404
UTC large
Height (km)
Speed (km/s)
/
Latitude / Longitude
Inclination (degrees)
Orbital Period (minutes)
Azimuth
Elevation
Range (km)
Doppler Factor

Next 0 passes for location: London (51.5072 / 0.1276)

Sorry there are no passes over London.